Regional Weather Roundup
Issued by NWS

Home | Current Version | Previous Version | Text Only | Print | Product List | Glossary Off
Versions: 1 2 3 4 5 6 7 8 9 10 11 12 13 14 15 16 17 18 19 20 21 22 23 24 25 26 27 28 29 30 31 32 33 34 35 36 37 38 39 40 41 42 43 44 45 46 47 48 49 50

000
ASUS44 KMEG 231710
RWRTN
TENNESSEE HOURLY STATE WEATHER ROUNDUP
NATIONAL WEATHER SERVICE MEMPHIS TN
1200 PM CDT WED JUL 23 2014

TNZ002-004-019-021-049-052-054-088>092-231800-
WEST TENNESSEE

CITY           SKY/WX    TMP DP  RH WIND       PRES   REMARKS
MEMPHIS INTL   MOSUNNY   87  73  62 NW7       30.07S HX  94
NWS MEMPHIS      N/A     88 N/A N/A MISG        N/A
JACKSON        CLOUDY    88  72  58 VRB3      30.07F HX  94
DYERSBURG      MOSUNNY   90  68  48 SW5       30.06S HX  93
UNION CITY     MOSUNNY   84  73  70 E7        30.08R HX  91
PARIS          PTSUNNY   82  73  74 N7        30.11S
LEXINGTON      MOSUNNY   88  73  62 S3        30.07F HX  96
SAVANNAH         N/A     86  75  70 VRB3        N/A  HX  95
$$

TNZ008-025-027-028-033-062-065-066-231800-
NORTH MIDDLE TENNESSEE

CITY           SKY/WX    TMP DP  RH WIND       PRES   REMARKS
NASHVILLE      PTSUNNY   92  70  48 CALM      30.07F HX  97
DICKSON        SUNNY     86  72  62 W5        30.09F HX  92
CLARKSVILLE    PTSUNNY   87  70  56 W8        30.07F HX  92
LEBANON        PTSUNNY   88  72  58 NW6       30.06F HX  94
SMYRNA         MOSUNNY   95  73  48 CALM      30.07F HX 104
MURFREESBORO   MOSUNNY   87  72  61 N3        30.07F HX  93
COOKEVILLE     MOSUNNY   88  75  66 CALM      30.09F HX  97
GALLATIN       PTSUNNY   86  70  58 NW10      30.09F HX  90
CROSSVILLE     PTSUNNY   80  70  71 VRB3      30.13F
$$

TNZ061-075-076-078-094-096-097-231800-
SOUTH MIDDLE TENNESSEE

CITY           SKY/WX    TMP DP  RH WIND       PRES   REMARKS
LEWISBURG      SUNNY     86  70  58 SE5       30.08F HX  90
TULLAHOMA      SUNNY     81  70  69 SW3       30.12F
WINCHESTER     MOSUNNY   81  72  74 N5        30.11F
MCMINNVILLE    CLOUDY    70  70 100 VRB7      30.13R
COLUMBIA       MOSUNNY   90  73  58 VRB5      30.07S HX  98
SHELBYVILLE    SUNNY     84  75  74 S6        30.10F HX  92
$$

TNZ017-018-042-046-047-231800-
NORTHEAST TENNESSEE

CITY           SKY/WX    TMP DP  RH WIND       PRES   REMARKS
TRI CITIES     PTSUNNY   80  70  71 SW9       30.13F
ELIZABETHTON   PTSUNNY   75  70  83 SW8       30.13F
$$

TNZ012-013-036-069-073-074-231800-
CENTRAL EAST TENNESSEE

CITY           SKY/WX    TMP DP  RH WIND       PRES   REMARKS
KNOXVILLE      PTSUNNY   78  72  81 SE7       30.09F
OAK RIDGE      MOSUNNY   84  71  65 VRB3      30.09F
GATLINBURG     SUNNY     75  70  83 S7        30.10F
MORRISTOWN       N/A     79  73  83 SW8       30.12F
$$

TNZ083-085-099-231800-
SOUTHEAST TENNESSEE

CITY           SKY/WX    TMP DP  RH WIND       PRES   REMARKS
CHATTANOOGA    PTSUNNY   87  68  52 W5        30.08F HX  90
$$

SKY/WX REPORTED AS FAIR MEANS FEW OR NO CLOUDS BELOW
12 THOUSAND FEET.




USA.gov is the U.S. government's official web portal to all federal, state and local government web resources and services.